When you browse on this site, cookies collect data to enhance your experience and personalize the content and advertising you see.
Visit our Privacy Policy to learn more. By continuing to use the site, you agree to this use of cookies and data.
  • In Austria
  • List of Countries
  • For 7 days
  • Water Temperature
  • Satellite Maps
  • Weather Map
  • News
  • Weather Widgets
  • user-avatar
    Login

    Hourly Weather Graz

    Today, 25 May, Saturday

    Time Temperature Precipitation Wind Pressure Humidity
    00:00 +13°C° 0 mm 1 mps 722 mmHg 86%
    01:00 +12°C° 0 mm 1 mps 722 mmHg 87%
    02:00 +12°C° 0 mm 1 mps 722 mmHg 87%
    03:00 +12°C° 0 mm 1 mps 722 mmHg 88%
    04:00 +11°C° 0 mm 1 mps 722 mmHg 89%
    05:00 +13°C° 0 mm 1 mps 722 mmHg 82%
    06:00 +15°C° 0 mm 1 mps 723 mmHg 76%
    07:00 +18°C° 0 mm 1 mps 723 mmHg 69%
    08:00 +21°C° 0 mm 1 mps 723 mmHg 62%
    09:00 +23°C° 0 mm 1 mps 723 mmHg 54%
    10:00 +25°C° 0 mm 1 mps 724 mmHg 46%
    11:00 +25°C° 0.2 mm 1 mps 723 mmHg 46%
    12:00 +25°C° 0.2 mm 2 mps 723 mmHg 46%
    13:00 +25°C° 0.2 mm 2 mps 723 mmHg 46%
    14:00 +24°C° 0.6 mm 2 mps 723 mmHg 51%
    15:00 +24°C° 0.6 mm 2 mps 722 mmHg 55%
    16:00 +24°C° 0.6 mm 2 mps 722 mmHg 60%
    17:00 +22°C° 0.6 mm 1 mps 722 mmHg 66%
    18:00 +21°C° 0.6 mm 1 mps 722 mmHg 72%
    19:00 +17°C° 0.6 mm 0 mps 722 mmHg 79%
    20:00 +18°C° 0.6 mm 1 mps 722 mmHg 82%
    21:00 +16°C° 0.6 mm 1 mps 722 mmHg 85%
    22:00 +15°C° 0.6 mm 1 mps 723 mmHg 88%
    23:00 +14°C° 0.1 mm 1 mps 723 mmHg 89%

    Tomorrow, 26 May, Sunday

    Time Temperature Precipitation Wind Pressure Humidity
    00:00 +14°C° 0.1 mm 1 mps 723 mmHg 90%
    01:00 +13°C° 0.1 mm 1 mps 723 mmHg 90%
    02:00 +13°C° 0 mm 1 mps 723 mmHg 90%
    03:00 +13°C° 0 mm 1 mps 723 mmHg 90%
    04:00 +12°C° 0 mm 1 mps 722 mmHg 90%
    05:00 +14°C° 0 mm 1 mps 723 mmHg 86%
    06:00 +15°C° 0 mm 1 mps 723 mmHg 82%
    07:00 +18°C° 0 mm 1 mps 723 mmHg 79%
    08:00 +20°C° 0 mm 1 mps 723 mmHg 70%
    09:00 +22°C° 0 mm 1 mps 723 mmHg 61%
    10:00 +24°C° 0 mm 1 mps 724 mmHg 52%
    11:00 +25°C° 0.1 mm 1 mps 723 mmHg 51%
    12:00 +25°C° 0.1 mm 2 mps 723 mmHg 49%
    13:00 +25°C° 0.1 mm 2 mps 723 mmHg 48%
    14:00 +25°C° 0.1 mm 2 mps 723 mmHg 47%
    15:00 +25°C° 0.1 mm 3 mps 723 mmHg 47%
    16:00 +25°C° 0.1 mm 3 mps 722 mmHg 47%
    17:00 +23°C° 0.1 mm 2 mps 722 mmHg 56%
    18:00 +21°C° 0.1 mm 2 mps 722 mmHg 65%
    19:00 +20°C° 0.1 mm 1 mps 722 mmHg 74%
    20:00 +19°C° 0 mm 1 mps 722 mmHg 78%
    21:00 +16°C° 0 mm 1 mps 722 mmHg 83%
    22:00 +14°C° 0 mm 0 mps 722 mmHg 87%
    23:00 +14°C° 0 mm 0 mps 722 mmHg 88%

    Day after tomorrow, 27 May, Monday

    Time Temperature Precipitation Wind Pressure Humidity
    00:00 +14°C° 0 mm 1 mps 722 mmHg 88%
    01:00 +14°C° 0 mm 1 mps 722 mmHg 89%
    02:00 +14°C° 0 mm 1 mps 721 mmHg 88%
    03:00 +14°C° 0 mm 1 mps 721 mmHg 88%
    04:00 +14°C° 0 mm 1 mps 721 mmHg 88%
    05:00 +14°C° 0.1 mm 0 mps 721 mmHg 85%
    06:00 +15°C° 0.1 mm 0 mps 721 mmHg 82%
    07:00 +16°C° 0.1 mm 0 mps 722 mmHg 79%
    08:00 +17°C° 0.5 mm 0 mps 722 mmHg 80%
    09:00 +17°C° 0.5 mm 0 mps 721 mmHg 82%
    10:00 +17°C° 0.5 mm 0 mps 721 mmHg 84%
    11:00 +19°C° 0.1 mm 0 mps 721 mmHg 76%
    12:00 +22°C° 0.1 mm 1 mps 721 mmHg 69%
    13:00 +23°C° 0.1 mm 1 mps 720 mmHg 61%
    14:00 +23°C° 0.1 mm 1 mps 720 mmHg 64%
    15:00 +23°C° 0.1 mm 2 mps 720 mmHg 66%
    16:00 +21°C° 0.1 mm 2 mps 720 mmHg 69%
    17:00 +20°C° 1.4 mm 2 mps 719 mmHg 78%
    18:00 +19°C° 1.4 mm 1 mps 719 mmHg 87%
    19:00 +18°C° 1.4 mm 1 mps 719 mmHg 96%
    20:00 +16°C° 0.4 mm 1 mps 719 mmHg 96%
    21:00 +15°C° 0.4 mm 0 mps 718 mmHg 96%
    22:00 +14°C° 0.4 mm 0 mps 718 mmHg 96%
    23:00 +14°C° 0 mm 0 mps 718 mmHg 96%

    28 May, Tuesday

    Time Temperature Precipitation Wind Pressure Humidity
    00:00 +14°C° 0 mm 0 mps 718 mmHg 96%
    01:00 +13°C° 0 mm 0 mps 717 mmHg 96%
    02:00 +13°C° 0 mm 0 mps 717 mmHg 96%
    03:00 +12°C° 0 mm 0 mps 717 mmHg 96%
    04:00 +12°C° 0 mm 0 mps 716 mmHg 96%
    05:00 +13°C° 0.1 mm 0 mps 716 mmHg 94%
    06:00 +14°C° 0.1 mm 0 mps 716 mmHg 92%
    07:00 +15°C° 0.1 mm 0 mps 716 mmHg 90%
    08:00 +19°C° 0.1 mm 1 mps 716 mmHg 82%
    09:00 +21°C° 0.1 mm 1 mps 716 mmHg 73%
    10:00 +23°C° 0.1 mm 1 mps 716 mmHg 65%
    11:00 +23°C° 0.7 mm 1 mps 716 mmHg 65%
    12:00 +23°C° 0.7 mm 1 mps 716 mmHg 65%
    13:00 +24°C° 0.7 mm 2 mps 715 mmHg 64%
    14:00 +23°C° 1.6 mm 1 mps 716 mmHg 70%
    15:00 +22°C° 1.6 mm 1 mps 716 mmHg 76%
    16:00 +21°C° 1.6 mm 1 mps 716 mmHg 82%
    17:00 +19°C° 1 mm 1 mps 716 mmHg 85%
    18:00 +18°C° 1 mm 1 mps 717 mmHg 87%
    19:00 +16°C° 1 mm 1 mps 717 mmHg 90%
    20:00 +15°C° 0.3 mm 1 mps 718 mmHg 90%
    21:00 +15°C° 0.3 mm 1 mps 718 mmHg 90%
    22:00 +14°C° 0.3 mm 1 mps 719 mmHg 91%
    23:00 +13°C° 0.3 mm 1 mps 719 mmHg 91%

    29 May, Wednesday

    Time Temperature Precipitation Wind Pressure Humidity
    00:00 +13°C° 0.3 mm 1 mps 719 mmHg 91%
    01:00 +13°C° 0.3 mm 2 mps 720 mmHg 91%
    02:00 +12°C° 0 mm 2 mps 720 mmHg 91%
    03:00 +12°C° 0 mm 2 mps 720 mmHg 90%
    04:00 +11°C° 0 mm 1 mps 720 mmHg 90%
    05:00 +12°C° 0.2 mm 1 mps 720 mmHg 88%
    06:00 +12°C° 0.2 mm 1 mps 721 mmHg 87%
    07:00 +13°C° 0.2 mm 1 mps 721 mmHg 85%
    08:00 +14°C° 0.3 mm 1 mps 722 mmHg 83%
    09:00 +14°C° 0.3 mm 1 mps 722 mmHg 80%
    10:00 +14°C° 0.3 mm 0 mps 723 mmHg 77%
    11:00 +14°C° 1.3 mm 1 mps 723 mmHg 82%
    12:00 +14°C° 1.3 mm 1 mps 724 mmHg 87%
    13:00 +13°C° 1.3 mm 1 mps 724 mmHg 92%
    14:00 +13°C° 1.2 mm 1 mps 724 mmHg 92%
    15:00 +13°C° 1.2 mm 1 mps 724 mmHg 92%
    16:00 +13°C° 1.2 mm 2 mps 725 mmHg 92%
    17:00 +13°C° 1.2 mm 1 mps 725 mmHg 93%
    18:00 +12°C° 1.2 mm 1 mps 726 mmHg 94%
    19:00 +12°C° 1.2 mm 1 mps 726 mmHg 94%
    20:00 +12°C° 2 mm 1 mps 727 mmHg 95%
    21:00 +11°C° 2 mm 1 mps 727 mmHg 95%
    22:00 +11°C° 2 mm 1 mps 728 mmHg 96%
    23:00 +11°C° 1.3 mm 1 mps 728 mmHg 95%

    30 May, Thursday

    Time Temperature Precipitation Wind Pressure Humidity
    00:00 +11°C° 1.3 mm 1 mps 728 mmHg 95%
    01:00 +10°C° 1.3 mm 1 mps 728 mmHg 95%
    02:00 +10°C° 0.4 mm 1 mps 728 mmHg 95%
    03:00 +10°C° 0.4 mm 1 mps 728 mmHg 94%
    04:00 +10°C° 0.4 mm 1 mps 728 mmHg 94%
    05:00 +11°C° 0.3 mm 1 mps 728 mmHg 93%
    06:00 +11°C° 0.3 mm 1 mps 729 mmHg 93%
    07:00 +11°C° 0.3 mm 1 mps 729 mmHg 92%
    08:00 +12°C° 0.1 mm 1 mps 729 mmHg 86%
    09:00 +13°C° 0.1 mm 1 mps 729 mmHg 80%
    10:00 +14°C° 0.1 mm 1 mps 729 mmHg 75%
    11:00 +15°C° 0 mm 1 mps 729 mmHg 70%
    12:00 +15°C° 0 mm 1 mps 729 mmHg 65%
    13:00 +16°C° 0 mm 1 mps 728 mmHg 60%
    14:00 +16°C° 0 mm 1 mps 728 mmHg 60%
    15:00 +16°C° 0 mm 1 mps 728 mmHg 60%
    16:00 +16°C° 0 mm 1 mps 728 mmHg 61%
    17:00 +16°C° 0 mm 1 mps 728 mmHg 66%
    18:00 +14°C° 0 mm 0 mps 728 mmHg 72%
    19:00 +13°C° 0 mm 0 mps 728 mmHg 77%
    20:00 +12°C° 0 mm 0 mps 728 mmHg 79%
    21:00 +12°C° 0 mm 1 mps 728 mmHg 80%
    22:00 +12°C° 0 mm 1 mps 729 mmHg 82%
    23:00 +12°C° 0 mm 1 mps 729 mmHg 82%
    Show more